Location: *
(48.8667°N, 2.3331°E)
Time: 08:08:32
(UTC+00:00)

Cosmos 2061 Rocket - Visible Passes

Search period start: 11 May 2021 00:00
Search period end: 21 May 2021 00:00
Orbit: 965 x 1013 km, 82.9° (Epoch: 10 May)

Date Brightness Start Highest point End Pass type
(mag) Time Alt. Az. Time Alt. Az. Time Alt. Az.
11 May 6.3 00:15:11 10° NNE 00:19:24 18° ENE 00:23:39 10° ESE visible
11 May 4.0 01:59:41 10° N 02:06:03 88° E 02:12:06 12° S visible
12 May 5.5 00:43:55 10° N 00:49:29 31° ENE 00:55:03 10° SE visible
12 May 4.3 02:29:20 10° NNW 02:35:27 53° W 02:40:58 13° SSW visible
12 May 6.6 23:30:28 10° NE 23:32:01 11° NE 23:33:35 10° ENE visible
13 May 4.6 01:13:06 10° N 01:19:18 54° ENE 01:24:58 13° SSE visible
13 May 5.0 02:59:19 10° NNW 03:04:39 30° W 03:09:54 11° SW visible
13 May 6.2 23:57:55 10° NNE 00:02:20 19° ENE 00:06:46 10° ESE visible
14 May 4.0 01:42:32 10° N 01:48:54 87° W 01:53:55 18° S visible
14 May 5.6 03:29:56 10° NW 03:33:39 16° WNW 03:37:23 10° WSW visible
15 May 5.4 00:26:44 10° N 00:32:23 33° ENE 00:37:59 10° SE visible
15 May 4.3 02:12:13 10° NNW 02:18:17 50° W 02:22:54 18° SSW visible
15 May 6.5 23:12:53 10° NE 23:14:58 12° NE 23:17:05 10° ENE visible
16 May 4.5 00:55:56 10° N 01:02:11 57° ENE 01:07:00 18° SSE visible
16 May 5.1 02:42:14 10° NNW 02:47:29 28° W 02:51:56 13° SW visible
16 May 6.0 23:40:40 10° NNE 23:45:16 20° ENE 23:49:52 10° ESE visible
17 May 4.0 01:25:23 10° N 01:31:46 83° W 01:36:03 23° S visible
17 May 5.7 03:12:57 10° NW 03:16:27 16° WNW 03:19:58 10° WSW visible
18 May 5.3 00:09:31 10° N 00:15:17 35° ENE 00:20:11 14° SE visible
18 May 4.4 01:55:06 10° NNW 02:01:08 47° W 02:05:07 21° SSW visible
18 May 6.4 22:55:24 10° NNE 22:57:55 12° NE 23:00:26 10° ENE visible
19 May 4.4 00:38:45 10° N 00:45:04 60° ENE 00:49:17 22° SSE visible
19 May 5.2 02:25:09 10° NNW 02:30:17 27° W 02:34:13 15° SW visible
19 May 5.9 23:23:25 10° NNE 23:28:11 21° ENE 23:32:57 10° ESE visible
20 May 4.0 01:08:14 10° NNW 01:14:37 79° W 01:18:24 27° S visible
20 May 5.8 02:55:59 10° NW 02:59:15 15° WNW 03:02:32 10° WSW visible
